Regional Weather Roundup
Issued by NWS Jackson, KY

Home | Current Version | Previous Version | Graphics & Text | Print | Product List | Glossary On
Versions: 1 2 3 4 5 6 7 8 9 10 11 12 13 14 15 16 17 18 19 20 21 22 23 24 25 26 27 28 29 30 31 32 33 34 35 36 37 38 39 40 41 42 43 44 45 46 47 48 49
000
ASUS43 KJKL 311610
RWRJKL

EAST KENTUCKY HOURLY WEATHER ROUNDUP
NATIONAL WEATHER SERVICE JACKSON KY
1200 PM EDT FRI JUL 31 2015

NOTE: "FAIR" INDICATES FEW OR NO CLOUDS BELOW 12,000 FEET WITH
NO SIGNIFICANT WEATHER AND/OR OBSTRUCTIONS TO VISIBILITY.

* THESE REPORTS ARE NOT UNDER NWS QUALITY CONTROL AND MAY NOT
  REPORT WEATHER SUCH AS PRECIPITATION AND FOG.

KYZ079-080-083-085-087-088-110-112-115-119-120-311700
...EASTERN KENTUCKY...

CITY           SKY/WX    TMP DP  RH WIND       PRES   REMARKS
JACKSON        SUNNY     80  62  54 VRB3      30.11S
LONDON         SUNNY     83  55  38 N7        30.11S
SOMERSET*      SUNNY     79  55  44 NE5       30.11F
MONTICELLO*    SUNNY     84  62  47 N3        30.14S
WILLIAMSBURG*  MOSUNNY   79  61  53 CALM      30.11F
MIDDLESBORO*   SUNNY     81  61  50 NE9       30.11S
HAZARD APT*    SUNNY     81  59  47 NW5       30.11R
BLACK MTN*       N/A     70  59  68 VRB5        N/A
PIKEVILLE APT* PTSUNNY   75  63  64 CALM      30.11S
BIG SANDY*     SUNNY     80  61  52 E6        30.09F
MOREHEAD APT*  SUNNY     81  63  54 NW3       30.11S
$$

KYZ035-036-041-042-044-050-067-078-099-311700
...CENTRAL KENTUCKY...

CITY           SKY/WX    TMP DP  RH WIND       PRES   REMARKS
MT STERLING*   SUNNY     82  61  47 N3        30.11S
FLEMING/MASON* SUNNY     81  66  61 W5        30.09S
DANVILLE*      SUNNY     81  59  47 CALM      30.12S
RICHMOND*      SUNNY     81  61  50 NW3       30.10S
LEXINGTON      SUNNY     83  62  49 NW3       30.10S
FRANKFORT      SUNNY     84  62  47 NW6       30.08S
$$

KYZ091>093-OHZ055-061-077-WVZ005-015-034-035-042-311700
...SOUTHERN OHIO/WEST VIRGINIA...

CITY           SKY/WX    TMP DP  RH WIND       PRES   REMARKS
COVINGTON      SUNNY     83  64  52 W7G16     30.07S
COLUMBUS       MOSUNNY   84  62  47 W12       30.01S
DAYTON         MOSUNNY   80  65  59 W9        30.06S
WILMINGTON     SUNNY     81  65  58 W12       30.05S
HUNTINGTON     SUNNY     83  59  44 VRB3      30.06S
CHARLESTON     MOSUNNY   80  60  50 W6        30.06S
PINEVILLE*     MOSUNNY   78  64  61 MISG      30.15S
BECKLEY        SUNNY     75  53  46 CALM      30.14R
BLUEFIELD      PTSUNNY   75  54  47 W5        30.16S
$$

VAZ002-007-008-TNZ017-027-036-066-071-311700
...SOUTHWEST VIRGINIA/EAST TENNESSEE...

CITY           SKY/WX    TMP DP  RH WIND       PRES   REMARKS
WISE*          SUNNY     77  50  38 N9        30.17S
ABINGDON*      CLOUDY    76  54  46 CALM      30.12F
BRISTOL        MOSUNNY   80  55  42 N7        30.10S
KNOXVILLE      MOSUNNY   82  59  45 NE9       30.07S
OAK RIDGE      SUNNY     83  57  41 VRB5      30.09S
CROSSVILLE     SUNNY     79  55  43 NE10G20   30.14S
NASHVILLE      MOSUNNY   84  56  38 E7        30.10S
$$

...KEY TO REMARKS...
VSB - VISIBILITY IN MILES
WCI - WIND CHILL INDEX
HX  - HEAT INDEX

$$



USA.gov is the U.S. government's official web portal to all federal, state and local government web resources and services.